STARLINK-34239

Last updated on Sat Aug 02 2025 00:02:05 GMT+0000 (Coordinated Universal Time)

1 64728U 25144E 25213.58335648 -.01599750 00000+0 -38100-1 0 9998 2 64728 53.1596 124.7683 0000908 91.2357 263.7387 15.44287080 6082
UTC large
Height (km)
Speed (km/s)
/
Latitude / Longitude
Inclination (degrees)
Orbital Period (minutes)
Azimuth
Elevation
Range (km)
Doppler Factor

Next 0 passes for location: London (51.5072 / 0.1276)

Sorry there are no passes over London.